Home   Weather   Arctic Bay   Past weeks

Flag for Canada Past Weather in Arctic Bay, Nunavut, Canada — Yesterday and Last 2 Weeks

Now
-20 °F

Clear.


Feels Like: -37 °F
Forecast: -28 / -28 °F
Wind: 7 mph from South

Location: Pond Inlet

Current Time: Jan 19, 2017 at 6:08:22 am

Latest Report: Jan 19, 2017 at 5:00 am


Visibility: 9 mi

Pressure: 29.87 "Hg

Humidity: 62%

Dew Point: -29 °F

Location of Arctic BayLocation

Past Weather in Arctic Bay — Graph

°F

Arctic Bay Temperature Yesterday

Maximum temperature yesterday: -6 °F (at 12:00 am)
Minimum temperature yesterday: -20 °F (at 10:00 pm)
Average temperature yesterday: -12 °F

High & Low Weather Summary for the Past Weeks

 TemperatureHumidityPressure
High-2 °F (Jan 12, 2:00 pm)84% (Jan 4, 5:00 am)30.22 "Hg (Jan 4, 5:00 am)
Low-31 °F (Jan 15, 10:00 am)58% (Jan 18, 8:00 am)29.25 "Hg (Jan 18, 12:00 am)
Average-19 °F75%29.72 "Hg
* Reported Jan 4 5:00 am — Jan 19 5:00 am, Arctic Bay, Weather by CustomWeather, © 2017

Note: Actual official high and low records may vary slightly from our data, if they occured in-between our weather recording intervals... More about our weather records

Advertising

Arctic Bay Weather History for the Previous 24 Hours

Scroll right to see more
 ConditionsComfort  
Time TempWeatherWind HumidityBarometerVisibility
5:00 am
Thu, Jan 19
-20 °FClear.7 mph62%29.87 "Hg9 mi
4:00 am-22 °FClear.12 mph68%29.85 "Hg9 mi
3:00 am-20 °FClear.15 mph68%29.83 "Hg9 mi
2:00 am-18 °FClear.13 mph62%29.80 "Hg9 mi
1:00 am-17 °FClear.22 mph69%29.76 "Hg9 mi
12:33 am-22 °FSunny.15 mph68%29.75 "Hg9 mi
12:00 am-20 °FSunny.3 mph68%29.74 "Hg9 mi
11:00 pm
Wed, Jan 18
-18 °FClear.3 mph69%29.72 "Hg9 mi
10:00 pm-20 °FClear.8 mph68%29.69 "Hg9 mi
9:00 pm-18 °FClear.No wind69%29.67 "Hg9 mi
8:00 pm-17 °FClear.13 mph76%29.63 "Hg9 mi
7:00 pm-15 °FPassing clouds.13 mph69%29.61 "Hg9 mi
6:00 pm-15 °FScattered clouds.10 mph69%29.61 "Hg9 mi
5:00 pm-15 °FPartly sunny.5 mph69%29.58 "Hg15 mi
4:00 pm-15 °FPartly sunny.8 mph69%29.55 "Hg15 mi
3:00 pm-17 °FPartly sunny.10 mph69%29.53 "Hg40 mi
2:00 pm-17 °FPartly sunny.2 mph69%29.49 "Hg35 mi
1:00 pm-13 °FPartly sunny.2 mph63%29.46 "Hg35 mi
12:00 pm-13 °FPartly sunny.3 mph63%29.44 "Hg35 mi
11:00 am-15 °FPartly sunny.3 mph69%29.42 "Hg25 mi
10:00 am-11 °FOvercast.2 mph63%29.39 "Hg9 mi
9:00 am-11 °FOvercast.2 mph70%29.38 "Hg9 mi
8:00 am-9 °FOvercast.5 mph58%29.36 "Hg9 mi
7:00 am-11 °FOvercast.14 mph63%29.34 "Hg9 mi
6:00 am-8 °FOvercast.9 mph64%29.33 "Hg9 mi
Weather by CustomWeather, © 2017

See weather overviewHow to use our weather pages